{"data":{"norad_id":66372,"epoch":"2026-05-25T04:58:43.757760Z","epoch_age_seconds":54446,"freshness":"FRESH","line1":"1 66372U 25254AA  26145.20745090  .00010825  00000+0  37692-3 0  9992","line2":"2 66372  53.1579 234.6682 0001275 105.2354 254.8788 15.30212341 30728","mean_motion":15.30212341,"eccentricity":0.0001275,"inclination_deg":53.1579,"raan_deg":234.6682,"arg_perigee_deg":105.2354,"mean_anomaly_deg":254.8788,"bstar":0.00037692,"rev_number":3072,"period_min":94.104586756826,"perigee_km":474.30442397469,"apogee_km":476.05201935621,"semimajor_km":6853.3152216654,"source":"CELESTRAK","updated_at":"2026-05-25T13:38:21.198909Z"}}